sat.trackr.live / text

‹ back to catalog

2023-091D

NORAD 57169 · 2023-091D

PAYLOAD ACTIVE UNKNOWN

§ Identity

Operator
Country
CIS
Launch date
2023-06-27
Launch site
VOSTO
Launch vehicle
Mass (kg)
RCS (m²)

External: N2YO · Heavens-Above · Gunter

§ Orbital elements

Epoch: 2026-09-21T21:53:58.998624Z

Period
94.40 min
Inclination
97.5014°
Eccentricity
0.0011290
Mean motion
15.25485319 rev/d
Perigee alt
481.6 km
Apogee alt
497.1 km
Semi-major
6,867.5 km
B*
2.1595e-4
RAAN
326.6894°
Arg perigee
118.7791°
Mean anomaly
241.4582°
Rev number
17,890

§ Raw data

2023-091D1 57169U 23091D   26264.91248841  .00005402  00000+0  21595-3 0  99952 57169  97.5014 326.6894 0011290 118.7791 241.4582 15.25485319178905

JSON: /api/v1/satellites/57169 · /tle

For live sub-satellite position, see the globe view (requires WebGL).

§ Visibility from observer

Set your observer location to see the next 7 days of passes ≥ 10°. The values pass through the URL so the page stays shareable.

No JS? Fill the form by hand. The geolocation button needs JavaScript.